Eveleth, MN

3:06 AM CDT on September 30, 2016 (GMT -0500)
Eveleth-Virginia Municipal

Weather History for KEVM - November, 2012

Change the Weather History Date:

Tuesday, November 20, 2012

  Actual Average Record
Temperature  
Mean Temperature 29 °F -  
Max Temperature 35 °F 31 °F 53 °F (2014)
Min Temperature 23 °F 17 °F -9 °F (2014)
Degree Days  
Heating Degree Days 36    
Moisture  
Dew Point 28 °F    
Average Humidity 93    
Maximum Humidity 100    
Minimum Humidity 81    
Precipitation  
Precipitation 0.00 in - - ()
Sea Level Pressure  
Sea Level Pressure 30.09 in    
Wind  
Wind Speed 1 mph (North)    
Max Wind Speed 7 mph    
Max Gust Speed -    
Visibility 7 miles    
Events Fog    
Averages and records for this station are not official NWS values.
T = Trace of Precipitation, MM = Missing Value Source: NWS Daily Summary

Daily Weather History Graph

Daily Weather History Graph

Search for Another Location

Airport or City:

Trip Planner

Search our weather history database for the weather conditions in past years. The results will help you decide how hot, cold, wet, or windy it might be!

Date:

Astronomy

Nov. 20, 2012 Rise Set
Actual Time 7:22 AM CST 4:28 PM CST
Civil Twilight 6:48 AM CST 5:02 PM CST
Nautical Twilight 6:10 AM CST 5:40 PM CST
Astronomical Twilight 5:34 AM CST 6:16 PM CST
Moon 12:42 PM CST (11/20) No Moon Set
Length of Visible Light 10h 13m
Length of Day
9h 05m
First Quarter, 51% of the Moon is Illuminated
Nov 20
First Quarter
Nov 28
Full
Dec 6
Last Quarter
Dec 13
New
Dec 19
First Quarter

Hourly Weather History & Observations

Time (CST) Temp. Windchill Dew Point Humidity Pressure Visibility Wind Dir Wind Speed Gust Speed Precip Events Conditions
12:10 AM 35.6 °F - 32.0 °F 87% 30.07 in 10.0 mi Calm Calm - N/A   Clear
12:29 AM 32.0 °F - 30.2 °F 93% 30.07 in 10.0 mi Calm Calm - N/A   Clear
12:50 AM 32.0 °F 27.5 °F 30.2 °F 93% 30.08 in 7.0 mi NNW 4.6 mph - N/A   Clear
1:09 AM 33.8 °F - 32.0 °F 93% 30.09 in 10.0 mi Calm Calm - N/A   Clear
1:30 AM 32.0 °F 26.4 °F 30.2 °F 93% 30.10 in 10.0 mi NNW 5.8 mph - N/A   Clear
1:49 AM 32.0 °F 25.6 °F 30.2 °F 93% 30.10 in 10.0 mi NNW 6.9 mph - N/A   Clear
2:09 AM 32.0 °F 27.5 °F 30.2 °F 93% 30.09 in 10.0 mi NW 4.6 mph - N/A   Clear
2:30 AM 28.4 °F - 26.6 °F 93% 30.10 in 5.0 mi Calm Calm - N/A   Clear
2:49 AM 28.4 °F - 26.6 °F 93% 30.10 in 3.0 mi Calm Calm - N/A   Clear
3:09 AM 32.0 °F - 30.2 °F 93% 30.11 in 7.0 mi Calm Calm - N/A   Clear
3:30 AM 32.0 °F - 32.0 °F 100% 30.10 in 7.0 mi Calm Calm - N/A   Clear
3:49 AM 32.0 °F - 30.2 °F 93% 30.10 in 5.0 mi Calm Calm - N/A   Clear
4:09 AM 30.2 °F - 28.4 °F 93% 30.10 in 1.5 mi Calm Calm - N/A   Mostly Cloudy
4:30 AM 30.2 °F - 28.4 °F 93% 30.11 in 2.5 mi Calm Calm - N/A   Overcast
4:49 AM - - - N/A% 30.12 in 4.0 mi Calm Calm - N/A   Overcast
5:09 AM 30.2 °F 26.7 °F 28.4 °F 93% 30.11 in 5.0 mi NE 3.5 mph - N/A   Overcast
5:30 AM 30.2 °F 26.7 °F 28.4 °F 93% 30.11 in 4.0 mi North 3.5 mph - N/A   Overcast
5:49 AM 30.2 °F 24.3 °F 28.4 °F 93% 30.11 in 3.0 mi NNE 5.8 mph - N/A   Overcast
6:09 AM 28.4 °F 23.3 °F 28.4 °F 100% 30.12 in 3.0 mi NNW 4.6 mph - N/A   Overcast
6:30 AM 28.4 °F 24.6 °F 28.4 °F 100% 30.12 in 1.8 mi NW 3.5 mph - N/A   Overcast
6:49 AM 28.4 °F 23.3 °F 26.6 °F 93% 30.13 in 2.5 mi NNE 4.6 mph - N/A   Overcast
7:09 AM 28.4 °F 24.6 °F 26.6 °F 93% 30.14 in 2.5 mi North 3.5 mph - N/A   Overcast
7:30 AM 28.4 °F 24.6 °F 26.6 °F 93% 30.15 in 1.8 mi North 3.5 mph - N/A   Overcast
7:50 AM 28.4 °F 24.6 °F 26.6 °F 93% 30.14 in 1.2 mi NNE 3.5 mph - N/A   Overcast
8:09 AM 28.4 °F 24.6 °F 26.6 °F 93% 30.14 in 1.0 mi ENE 3.5 mph - N/A   Overcast
8:30 AM 28.4 °F - 26.6 °F 93% 30.14 in 0.5 mi Calm Calm - N/A Fog Light Freezing Fog
8:50 AM 28.4 °F - 28.4 °F 100% 30.13 in 0.2 mi Calm Calm - N/A Fog Light Freezing Fog
9:09 AM 28.4 °F 24.6 °F 28.4 °F 100% 30.13 in 0.2 mi NE 3.5 mph - N/A Fog Light Freezing Fog
9:30 AM 30.2 °F - 28.4 °F 93% 30.15 in 0.8 mi Calm Calm - N/A   Overcast
9:49 AM 30.2 °F - 30.2 °F 100% 30.13 in 0.2 mi Calm Calm - N/A Fog Light Freezing Fog
10:10 AM 30.2 °F - 30.2 °F 100% 30.14 in 1.2 mi Calm Calm - N/A   Overcast
10:29 AM 30.2 °F - 30.2 °F 100% 30.15 in 1.0 mi Calm Calm - N/A   Overcast
10:49 AM 30.2 °F 26.7 °F 30.2 °F 100% 30.15 in 2.0 mi WNW 3.5 mph - N/A   Overcast
11:10 AM 32.0 °F 28.7 °F 32.0 °F 100% 30.15 in 5.0 mi NE 3.5 mph - N/A   Overcast
11:29 AM 32.0 °F - 32.0 °F 100% 30.14 in 5.0 mi Calm Calm - N/A   Overcast
11:49 AM 32.0 °F - 32.0 °F 100% 30.13 in 7.0 mi Calm Calm - N/A   Overcast
12:10 PM 32.0 °F - 32.0 °F 100% 30.13 in 10.0 mi Calm Calm - N/A   Mostly Cloudy
12:30 PM 33.8 °F - 30.2 °F 87% 30.12 in 10.0 mi Calm Calm - N/A   Scattered Clouds
12:49 PM 33.8 °F - 30.2 °F 87% 30.12 in 10.0 mi Calm Calm - N/A   Clear
1:09 PM 35.6 °F 32.8 °F 32.0 °F 87% 30.12 in 10.0 mi SSW 3.5 mph - N/A   Clear
1:30 PM 35.6 °F - 30.2 °F 81% 30.11 in 10.0 mi Calm Calm - N/A   Clear
1:49 PM 35.6 °F - 30.2 °F 81% 30.10 in 10.0 mi Calm Calm - N/A   Clear
2:09 PM 35.6 °F 32.8 °F 30.2 °F 81% 30.09 in 10.0 mi South 3.5 mph - N/A   Clear
2:30 PM 35.6 °F - 30.2 °F 81% 30.09 in 10.0 mi Calm Calm - N/A   Clear
2:49 PM 35.6 °F - 30.2 °F 81% 30.08 in 10.0 mi Calm Calm - N/A   Clear
3:10 PM 35.6 °F 32.8 °F 30.2 °F 81% 30.07 in 10.0 mi South 3.5 mph - N/A   Clear
3:30 PM 35.6 °F 32.8 °F 30.2 °F 81% 30.08 in 10.0 mi South 3.5 mph - N/A   Clear
3:49 PM - - - N/A% 30.07 in 10.0 mi SSE 3.5 mph - N/A   Clear
4:10 PM 35.6 °F - 32.0 °F 87% 30.07 in 10.0 mi Calm Calm - N/A   Clear
4:30 PM 32.0 °F - 28.4 °F 87% 30.08 in 10.0 mi Calm Calm - N/A   Clear
4:49 PM 30.2 °F - 28.4 °F 93% 30.08 in 10.0 mi Calm Calm - N/A   Clear
5:10 PM 30.2 °F - 28.4 °F 93% 30.07 in 10.0 mi Calm Calm - N/A   Clear
5:30 PM 28.4 °F - 26.6 °F 93% 30.05 in 10.0 mi Calm Calm - N/A   Clear
5:49 PM 28.4 °F - 26.6 °F 93% 30.05 in 10.0 mi Calm Calm - N/A   Clear
6:10 PM 28.4 °F - 26.6 °F 93% 30.04 in 10.0 mi Calm Calm - N/A   Clear
6:29 PM 26.6 °F - 26.6 °F 100% 30.04 in 10.0 mi Calm Calm - N/A   Clear
6:50 PM 28.4 °F - 26.6 °F 93% 30.05 in 10.0 mi Calm Calm - N/A   Clear
7:09 PM 26.6 °F - 24.8 °F 93% 30.05 in 7.0 mi Calm Calm - N/A   Clear
7:29 PM 26.6 °F - 24.8 °F 93% 30.04 in 10.0 mi Calm Calm - N/A   Clear
7:50 PM 26.6 °F - 23.0 °F 86% 30.03 in 7.0 mi Calm Calm - N/A   Clear
8:09 PM 26.6 °F - 24.8 °F 93% 30.04 in 10.0 mi Calm Calm - N/A   Clear
8:29 PM 26.6 °F - 23.0 °F 86% 30.03 in 10.0 mi Calm Calm - N/A   Clear
8:50 PM 24.8 °F - 23.0 °F 93% 30.03 in 10.0 mi Calm Calm - N/A   Clear
9:09 PM 24.8 °F - 23.0 °F 93% 30.04 in 10.0 mi Calm Calm - N/A   Clear
9:29 PM 24.8 °F - 23.0 °F 93% 30.04 in 10.0 mi Calm Calm - N/A   Clear
9:50 PM 23.0 °F - 21.2 °F 93% 30.03 in 10.0 mi Calm Calm - N/A   Clear
10:09 PM 23.0 °F - 23.0 °F 100% 30.03 in 10.0 mi Calm Calm - N/A   Clear
10:29 PM 24.8 °F - 23.0 °F 93% 30.02 in 10.0 mi Calm Calm - N/A   Clear
10:50 PM 23.0 °F - 21.2 °F 93% 30.01 in 10.0 mi Calm Calm - N/A   Clear
11:09 PM 23.0 °F 18.4 °F 23.0 °F 100% 30.00 in 7.0 mi NE 3.5 mph - N/A   Clear
11:29 PM 23.0 °F - 23.0 °F 100% 30.00 in 10.0 mi Calm Calm - N/A   Clear
11:50 PM 26.6 °F 22.6 °F 24.8 °F 93% 29.99 in 7.0 mi ENE 3.5 mph - N/A   Clear